Retour au catalogue

STARLINK-31640

ActifCommunicationsVLEO
NORAD 59748·PAYLOAD·🇺🇸 United States

Lancé May 13, 2024 depuis Cape Canaveral Space Force Station

Loading…

Prochains Passages (prochaines 24 heures)

TLE

FraisSource: CelesTrak SupGP

Époque: Sep 14, 2026, 22:32 UTC

1 59748C 24090U   26257.93937500 -.00029657  00000+0 -10740-2 0  2577
2 59748  43.0025 194.7631 0001348 264.1303  67.1803 15.27598707    12

Suivez STARLINK-31640 en temps réel avec AllMySat

Download on the App Store